Weather History for KMKJ - December, 2012

Change the Weather History Date:

Monday, December 31, 2012

  Actual Average (KGEV) Record (KGEV)
Temperature  
Mean Temperature 32 °F -  
Max Temperature 42 °F 43 °F 69 °F (1992)
Min Temperature 23 °F 26 °F 1 °F (1983)
Degree Days  
Heating Degree Days 32    
Moisture  
Dew Point 20 °F    
Average Humidity 63    
Maximum Humidity 91    
Minimum Humidity 34    
Precipitation  
Precipitation 0.00 in - - ()
Sea Level Pressure  
Sea Level Pressure 30.22 in    
Wind  
Wind Speed 11 mph (WSW)    
Max Wind Speed 20 mph    
Max Gust Speed 26 mph    
Visibility 10 miles    
Events      
Averages and records for this station are not official NWS values.
T = Trace of Precipitation, MM = Missing Value Source: NWS Daily Summary

Daily Weather History Graph

Daily Weather History Graph

Search for Another Location

Airport or City:

Trip Planner

Search our weather history database for the weather conditions in past years. The results will help you decide how hot, cold, wet, or windy it might be!

Date:

Astronomy

Dec. 31, 2012 Rise Set
Actual Time 7:38 AM EST 5:19 PM EST
Civil Twilight 7:09 AM EST 5:48 PM EST
Nautical Twilight 6:37 AM EST 6:20 PM EST
Astronomical Twilight 6:05 AM EST 6:52 PM EST
Moon 8:43 PM EST (12/31) 9:23 AM EST (12/31)
Length of Visible Light 10h 38m
Length of Day
9h 40m
Waning Gibbous, 90% of the Moon is Illuminated
Dec 31
Waning Gibbous
Jan 4
Last Quarter
Jan 11
New
Jan 18
First Quarter
Jan 26
Full

Hourly Weather History & Observations

Time (EST) Temp. Windchill Dew Point Humidity Pressure Visibility Wind Dir Wind Speed Gust Speed Precip Events Conditions
12:15 AM 25.2 °F 13.9 °F 21.6 °F 86% 30.32 in 10.0 mi West 12.7 mph - N/A   Clear
12:35 AM 25.7 °F 14.6 °F 21.9 °F 86% 30.33 in 10.0 mi WSW 12.7 mph - N/A   Clear
12:55 AM 26.2 °F 16.4 °F 21.7 °F 83% 30.31 in 10.0 mi WSW 10.4 mph - N/A   Clear
1:15 AM 24.8 °F 14.6 °F 21.2 °F 86% 30.30 in 10.0 mi West 10.4 mph - N/A   Clear
1:35 AM 25.0 °F 15.5 °F 21.4 °F 86% 30.31 in 10.0 mi West 9.2 mph - N/A   Clear
1:55 AM 24.8 °F 16.1 °F 21.0 °F 86% 30.30 in 10.0 mi West 8.1 mph - N/A   Clear
2:15 AM 24.6 °F 15.1 °F 21.0 °F 86% 30.30 in 10.0 mi West 9.2 mph - N/A   Clear
2:35 AM 24.3 °F 14.6 °F 20.8 °F 87% 30.30 in 10.0 mi West 9.2 mph - N/A   Clear
2:55 AM 24.1 °F 14.4 °F 20.8 °F 87% 30.30 in 10.0 mi West 9.2 mph - N/A   Clear
3:15 AM 24.1 °F 15.2 °F 21.2 °F 89% 30.30 in 10.0 mi West 8.1 mph - N/A   Clear
3:35 AM 24.3 °F 15.4 °F 21.0 °F 87% 30.30 in 10.0 mi West 8.1 mph - N/A   Clear
3:55 AM 24.4 °F 17.5 °F 21.6 °F 89% 30.30 in 10.0 mi West 5.8 mph - N/A   Clear
4:15 AM 24.8 °F 17.9 °F 21.6 °F 87% 30.29 in 10.0 mi West 5.8 mph - N/A   Clear
4:35 AM 24.6 °F 17.7 °F 21.0 °F 86% 30.29 in 10.0 mi WSW 5.8 mph - N/A   Clear
4:55 AM 24.6 °F 17.7 °F 21.4 °F 87% 30.28 in 10.0 mi West 5.8 mph - N/A   Clear
5:15 AM 23.7 °F 15.6 °F 21.2 °F 90% 30.28 in 10.0 mi WSW 6.9 mph - N/A   Clear
5:35 AM 23.7 °F 14.7 °F 21.6 °F 91% 30.27 in 10.0 mi West 8.1 mph - N/A   Clear
5:55 AM 25.7 °F 20.1 °F 22.5 °F 88% 30.27 in 10.0 mi WSW 4.6 mph - N/A   Clear
6:15 AM 25.7 °F 18.0 °F 22.5 °F 88% 30.27 in 10.0 mi West 6.9 mph - N/A   Clear
6:35 AM 25.7 °F 17.1 °F 22.5 °F 88% 30.28 in 10.0 mi West 8.1 mph - N/A   Clear
6:55 AM 26.6 °F 18.2 °F 23.0 °F 86% 30.28 in 10.0 mi WSW 8.1 mph - N/A   Clear
7:15 AM 26.4 °F 18.9 °F 21.9 °F 83% 30.28 in 10.0 mi West 6.9 mph - N/A   Clear
7:55 AM 26.6 °F 19.1 °F 21.6 °F 81% 30.29 in 10.0 mi WSW 6.9 mph - N/A   Clear
8:15 AM 26.6 °F 19.1 °F 21.2 °F 80% 30.29 in 10.0 mi West 6.9 mph - N/A   Clear
8:35 AM 27.9 °F 19.8 °F 21.6 °F 77% 30.29 in 10.0 mi West 8.1 mph - N/A   Clear
8:55 AM 29.3 °F 21.5 °F 21.9 °F 74% 30.28 in 10.0 mi West 8.1 mph - N/A   Clear
9:15 AM 30.2 °F 21.9 °F 22.3 °F 72% 30.28 in 10.0 mi West 9.2 mph - N/A   Clear
9:35 AM 30.9 °F 22.2 °F 22.3 °F 70% 30.28 in 10.0 mi West 10.4 mph - N/A   Clear
9:55 AM 31.8 °F 24.6 °F 23.0 °F 70% 30.27 in 10.0 mi West 8.1 mph - N/A   Clear
10:15 AM 32.2 °F 23.8 °F 22.6 °F 68% 30.27 in 10.0 mi WSW 10.4 mph - N/A   Scattered Clouds
10:35 AM 32.9 °F 23.7 °F 22.1 °F 65% 30.28 in 10.0 mi WSW 12.7 mph - N/A   Mostly Cloudy
10:55 AM 33.4 °F 23.5 °F 22.3 °F 64% 30.28 in 10.0 mi WSW 15.0 mph 19.6 mph N/A   Scattered Clouds
11:15 AM 33.8 °F 25.3 °F 21.9 °F 62% 30.27 in 10.0 mi WSW 11.5 mph - N/A   Clear
11:35 AM 37.0 °F 28.5 °F 22.3 °F 55% 30.27 in 10.0 mi WSW 13.8 mph - N/A   Clear
11:55 AM 38.5 °F 30.3 °F 22.5 °F 53% 30.24 in 10.0 mi WSW 13.8 mph - N/A   Clear
12:15 PM 39.0 °F 30.6 °F 22.1 °F 51% 30.22 in 10.0 mi WSW 15.0 mph - N/A   Clear
12:35 PM 39.9 °F 32.5 °F 21.6 °F 48% 30.21 in 10.0 mi WSW 12.7 mph - N/A   Clear
12:55 PM 40.6 °F 33.0 °F 21.0 °F 46% 30.20 in 10.0 mi WSW 13.8 mph - N/A   Scattered Clouds
1:15 PM 41.2 °F 33.0 °F 18.1 °F 40% 30.17 in 10.0 mi WSW 16.1 mph 24.2 mph N/A   Scattered Clouds
1:35 PM 42.3 °F 34.4 °F 17.4 °F 37% 30.18 in 10.0 mi WSW 16.1 mph 23.0 mph N/A   Scattered Clouds
1:55 PM 41.4 °F 34.7 °F 17.1 °F 38% 30.16 in 10.0 mi West 11.5 mph 20.7 mph N/A   Scattered Clouds
2:15 PM 41.5 °F 34.2 °F 17.8 °F 38% 30.18 in 10.0 mi WSW 13.8 mph 20.7 mph N/A   Mostly Cloudy
2:35 PM 41.5 °F 32.6 °F 15.8 °F 35% 30.17 in 10.0 mi WSW 19.6 mph 26.5 mph N/A   Overcast
2:55 PM 41.9 °F 34.3 °F 15.4 °F 34% 30.17 in 10.0 mi WSW 15.0 mph 21.9 mph N/A   Overcast
3:15 PM 41.2 °F 32.1 °F 14.7 °F 34% 30.17 in 10.0 mi WSW 19.6 mph 26.5 mph N/A   Overcast
3:35 PM 41.0 °F 32.8 °F 14.9 °F 35% 30.17 in 10.0 mi WSW 16.1 mph 26.5 mph N/A   Overcast
3:55 PM 40.3 °F 32.6 °F 14.5 °F 35% 30.16 in 10.0 mi WSW 13.8 mph 21.9 mph N/A   Overcast
4:15 PM 40.1 °F 32.0 °F 16.9 °F 39% 30.16 in 10.0 mi West 15.0 mph 20.7 mph N/A   Overcast
4:35 PM 39.6 °F 31.3 °F 16.9 °F 40% 30.14 in 10.0 mi WSW 15.0 mph - N/A   Overcast
4:55 PM 39.2 °F 32.0 °F 17.4 °F 41% 30.15 in 10.0 mi West 11.5 mph - N/A   Overcast
5:15 PM 38.7 °F 31.8 °F 17.4 °F 42% 30.17 in 10.0 mi West 10.4 mph - N/A   Overcast
5:35 PM 38.7 °F 30.9 °F 16.0 °F 40% 30.16 in 10.0 mi WSW 12.7 mph 17.3 mph N/A   Overcast
5:55 PM 38.7 °F 30.5 °F 14.9 °F 38% 30.15 in 10.0 mi West 13.8 mph 20.7 mph N/A   Overcast
6:15 PM 38.7 °F 30.1 °F 15.6 °F 39% 30.16 in 10.0 mi WSW 15.0 mph 20.7 mph N/A   Overcast
6:35 PM 38.3 °F 30.9 °F 18.5 °F 45% 30.15 in 10.0 mi WSW 11.5 mph - N/A   Overcast
6:55 PM 37.9 °F 30.5 °F 19.2 °F 47% 30.14 in 10.0 mi West 11.5 mph 16.1 mph N/A   Overcast
7:15 PM 37.6 °F 30.0 °F 20.3 °F 50% 30.13 in 10.0 mi WSW 11.5 mph 16.1 mph N/A   Overcast
7:35 PM 37.8 °F 29.8 °F 19.6 °F 48% 30.12 in 10.0 mi WSW 12.7 mph 17.3 mph N/A   Overcast
7:55 PM 37.8 °F 31.3 °F 20.5 °F 50% 30.13 in 10.0 mi WSW 9.2 mph - N/A   Overcast
8:15 PM 37.0 °F 29.8 °F 21.4 °F 53% 30.13 in 10.0 mi West 10.4 mph - N/A   Overcast
8:35 PM 36.7 °F 29.4 °F 21.4 °F 54% 30.12 in 10.0 mi West 10.4 mph - N/A   Mostly Cloudy
8:55 PM 36.9 °F 30.1 °F 21.6 °F 54% 30.11 in 10.0 mi WSW 9.2 mph - N/A   Mostly Cloudy
9:15 PM 36.9 °F 30.1 °F 21.7 °F 54% 30.11 in 10.0 mi WSW 9.2 mph - N/A   Scattered Clouds
9:35 PM 36.7 °F 29.4 °F 22.1 °F 56% 30.09 in 10.0 mi WSW 10.4 mph - N/A   Scattered Clouds
10:15 PM 36.9 °F 30.7 °F 22.5 °F 56% 30.10 in 10.0 mi WSW 8.1 mph - N/A   Overcast
10:35 PM 37.0 °F 29.8 °F 21.9 °F 54% 30.09 in 10.0 mi WSW 10.4 mph - N/A   Mostly Cloudy
10:55 PM 36.7 °F 28.9 °F 22.3 °F 56% 30.10 in 10.0 mi WSW 11.5 mph - N/A   Overcast
11:15 PM 36.7 °F 29.9 °F 22.8 °F 57% 30.10 in 10.0 mi WSW 9.2 mph - N/A   Overcast
11:35 PM 36.5 °F 30.3 °F 23.5 °F 59% 30.09 in 10.0 mi WSW 8.1 mph - N/A   Overcast